Total_Precipitation_Accumulation
0.05 0.06 0.06 0.08 0.07 0.07 0.06 0.05 0.04 0.03 0.00 0.00 0.00 0.02 0.04 0.06 0.03 0.04 0.02 0.00 0.00 0.00 0.00 0.00 0.00 0.00 0.00 0.00 0.00 0.00 0.00 0.00 0.00 0.00 0.00 0.00 0.00 0.00 0.00 0.00 0.00 0.00 0.00 0.00 0.00
0.03 0.04 0.05 0.08 0.07 0.05 0.05 0.04 0.04 0.03 0.01 0.00 0.00 0.02 0.11 0.11 0.03 0.02 0.00 0.00 0.00 0.00 0.00 0.00 0.00 0.00 0.00 0.00 0.00 0.00 0.00 0.00 0.00 0.00 0.00 0.00 0.00 0.00 0.00 0.00 0.00 0.00 0.00 0.00 0.00
0.02 0.04 0.05 0.08 0.10 0.07 0.06 0.05 0.04 0.04 0.03 0.00 0.00 0.00 0.11 0.15 0.13 0.02 0.00 0.00 0.02 0.04 0.00 0.00 0.00 0.00 0.00 0.00 0.00 0.00 0.00 0.00 0.00 0.00 0.00 0.00 0.00 0.00 0.00 0.00 0.00 0.00 0.00 0.00 0.00
0.03 0.03 0.05 0.06 0.07 0.08 0.07 0.06 0.06 0.08 0.09 0.02 0.00 0.00 0.07 0.22 0.09 0.01 0.00 0.00 0.05 0.10 0.00 0.00 0.00 0.00 0.00 0.00 0.00 0.00 0.00 0.00 0.00 0.00 0.00 0.00 0.00 0.00 0.00 0.00 0.00 0.00 0.00 0.00 0.00
0.06 0.06 0.06 0.06 0.06 0.09 0.09 0.06 0.07 0.10 0.12 0.10 0.01 0.00 0.05 0.18 0.06 0.00 0.00 0.02 0.09 0.20 0.01 0.00 0.00 0.00 0.00 0.00 0.00 0.00 0.00 0.00 0.00 0.00 0.00 0.00 0.00 0.00 0.00 0.00 0.00 0.00 0.00 0.00 0.00
0.08 0.06 0.06 0.07 0.08 0.07 0.08 0.06 0.06 0.13 0.14 0.09 0.02 0.00 0.01 0.05 0.01 0.00 0.00 0.00 0.03 0.24 0.06 0.01 0.00 0.00 0.00 0.00 0.00 0.00 0.00 0.00 0.00 0.00 0.00 0.00 0.00 0.00 0.00 0.00 0.00 0.00 0.00 0.00 0.00
0.08 0.07 0.06 0.06 0.09 0.09 0.08 0.05 0.07 0.14 0.15 0.15 0.06 0.00 0.00 0.00 0.00 0.00 0.00 0.00 0.00 0.15 0.12 0.03 0.00 0.00 0.00 0.00 0.00 0.00 0.00 0.00 0.00 0.00 0.00 0.00 0.00 0.00 0.00 0.00 0.00 0.00 0.00 0.00 0.00
0.04 0.05 0.05 0.06 0.10 0.10 0.11 0.06 0.06 0.13 0.21 0.16 0.11 0.00 0.00 0.00 0.00 0.00 0.00 0.00 0.01 0.07 0.16 0.08 0.03 0.00 0.00 0.00 0.00 0.00 0.00 0.00 0.00 0.00 0.00 0.00 0.00 0.00 0.00 0.00 0.00 0.00 0.00 0.00 0.00
0.04 0.05 0.04 0.05 0.10 0.15 0.19 0.25 0.23 0.21 0.21 0.29 0.12 0.01 0.00 0.00 0.00 0.00 0.00 0.00 0.05 0.12 0.09 0.04 0.02 0.00 0.00 0.00 0.00 0.00 0.00 0.00 0.00 0.00 0.00 0.00 0.00 0.00 0.00 0.00 0.00 0.00 0.00 0.00 0.00
0.05 0.04 0.07 0.06 0.09 0.21 0.34 0.49 0.54 0.40 0.39 0.41 0.13 0.01 0.00 0.00 0.00 0.00 0.00 0.00 0.00 0.04 0.03 0.07 0.03 0.00 0.00 0.00 0.00 0.00 0.00 0.00 0.00 0.00 0.00 0.00 0.00 0.00 0.00 0.00 0.00 0.00 0.00 0.00 0.00
0.04 0.05 0.10 0.11 0.16 0.45 0.63 0.85 0.97 0.77 0.61 0.27 0.07 0.00 0.00 0.00 0.00 0.00 0.00 0.00 0.00 0.01 0.00 0.00 0.02 0.00 0.00 0.00 0.00 0.00 0.00 0.00 0.00 0.00 0.00 0.00 0.00 0.00 0.00 0.00 0.00 0.00 0.00 0.00 0.00
0.06 0.13 0.21 0.21 0.24 0.47 0.77 0.73 0.57 0.39 0.39 0.17 0.04 0.00 0.00 0.00 0.00 0.00 0.00 0.00 0.00 0.00 0.00 0.00 0.00 0.00 0.00 0.00 0.00 0.00 0.00 0.00 0.00 0.00 0.00 0.00 0.00 0.00 0.00 0.00 0.00 0.00 0.00 0.00 0.00
0.19 0.19 0.22 0.16 0.15 0.50 0.54 0.47 0.50 0.52 0.44 0.32 0.07 0.00 0.00 0.00 0.00 0.00 0.00 0.00 0.00 0.00 0.00 0.00 0.00 0.00 0.00 0.00 0.00 0.00 0.00 0.00 0.00 0.00 0.00 0.00 0.00 0.00 0.00 0.00 0.00 0.00 0.00 0.00 0.00
0.23 0.16 0.16 0.13 0.28 0.43 0.43 0.41 0.69 0.95 0.74 0.40 0.15 0.01 0.00 0.00 0.00 0.00 0.00 0.00 0.00 0.00 0.00 0.00 0.00 0.00 0.00 0.00 0.00 0.00 0.00 0.00 0.00 0.00 0.00 0.00 0.00 0.00 0.00 0.00 0.00 0.00 0.00 0.00 0.00
0.11 0.07 0.12 0.24 0.43 0.48 0.46 0.49 0.79 1.36 1.10 0.32 0.10 0.01 0.00 0.00 0.00 0.00 0.00 0.00 0.00 0.00 0.00 0.00 0.00 0.00 0.00 0.00 0.00 0.00 0.00 0.00 0.00 0.01 0.01 0.00 0.01 0.00 0.00 0.00 0.00 0.00 0.00 0.00 0.00
0.06 0.07 0.15 0.24 0.48 0.44 0.43 0.95 1.02 1.34 0.78 0.31 0.16 0.04 0.03 0.02 0.01 0.00 0.01 0.01 0.00 0.00 0.00 0.00 0.00 0.00 0.00 0.00 0.00 0.00 0.00 0.00 0.00 0.02 0.04 0.00 0.00 0.00 0.00 0.00 0.00 0.00 0.00 0.00 0.00
0.08 0.15 0.37 0.36 0.42 0.37 0.78 1.41 1.31 0.78 0.29 0.07 0.06 0.04 0.02 0.01 0.03 0.01 0.02 0.02 0.01 0.01 0.01 0.00 0.00 0.00 0.00 0.00 0.00 0.00 0.04 0.06 0.06 0.09 0.02 0.00 0.00 0.00 0.00 0.00 0.00 0.00 0.00 0.00 0.00
0.38 0.33 0.27 0.24 0.27 0.73 1.28 1.05 0.93 0.25 0.12 0.03 0.01 0.03 0.02 0.01 0.03 0.02 0.01 0.02 0.01 0.00 0.00 0.00 0.00 0.00 0.00 0.00 0.00 0.00 0.02 0.05 0.02 0.00 0.00 0.00 0.00 0.00 0.00 0.00 0.00 0.00 0.00 0.00 0.00
0.46 0.17 0.19 0.11 0.26 0.98 1.07 0.82 0.54 0.23 0.02 0.02 0.06 0.09 0.07 0.01 0.02 0.02 0.02 0.01 0.00 0.00 0.01 0.00 0.00 0.00 0.00 0.00 0.01 0.07 0.11 0.04 0.15 0.10 0.12 0.02 0.00 0.00 0.00 0.00 0.00 0.00 0.00 0.00 0.00
0.45 0.19 0.26 0.19 0.36 0.92 0.72 0.51 0.29 0.22 0.01 0.00 0.03 0.01 0.02 0.01 0.01 0.01 0.01 0.00 0.00 0.00 0.00 0.00 0.00 0.00 0.00 0.00 0.00 0.01 0.02 0.09 0.24 0.15 0.06 0.00 0.00 0.00 0.00 0.00 0.00 0.00 0.00 0.00 0.00
0.45 0.23 0.34 0.31 0.58 0.91 0.57 0.46 0.20 0.07 0.01 0.00 0.00 0.00 0.00 0.00 0.00 0.00 0.00 0.00 0.00 0.00 0.00 0.00 0.02 0.01 0.01 0.00 0.00 0.01 0.08 0.11 0.16 0.14 0.08 0.03 0.00 0.00 0.00 0.00 0.00 0.00 0.00 0.00 0.00
0.59 0.47 0.21 0.32 0.64 0.65 0.41 0.32 0.30 0.13 0.02 0.00 0.00 0.00 0.00 0.00 0.00 0.00 0.00 0.00 0.00 0.00 0.00 0.00 0.04 0.02 0.01 0.00 0.00 0.00 0.00 0.03 0.21 0.08 0.13 0.06 0.03 0.00 0.00 0.00 0.00 0.00 0.00 0.00 0.00
0.48 0.46 0.27 0.26 0.28 0.24 0.30 0.23 0.08 0.07 0.04 0.00 0.00 0.00 0.00 0.00 0.00 0.00 0.00 0.00 0.00 0.00 0.00 0.00 0.04 0.03 0.01 0.03 0.03 0.04 0.01 0.10 0.20 0.39 0.23 0.11 0.03 0.00 0.00 0.00 0.00 0.00 0.00 0.00 0.00
0.69 0.72 0.54 0.31 0.15 0.07 0.28 0.21 0.11 0.09 0.02 0.00 0.00 0.00 0.00 0.00 0.00 0.00 0.00 0.00 0.00 0.00 0.00 0.01 0.03 0.02 0.03 0.06 0.19 0.18 0.03 0.10 0.38 0.49 0.08 0.04 0.00 0.00 0.00 0.00 0.01 0.01 0.01 0.01 0.00
0.52 0.20 0.14 0.16 0.10 0.10 0.15 0.17 0.11 0.04 0.01 0.00 0.01 0.00 0.00 0.01 0.00 0.00 0.00 0.00 0.00 0.00 0.00 0.04 0.05 0.02 0.02 0.06 0.22 0.20 0.08 0.07 0.31 0.15 0.19 0.05 0.00 0.00 0.00 0.00 0.01 0.01 0.00 0.00 0.01
0.36 0.08 0.01 0.01 0.05 0.05 0.04 0.07 0.03 0.00 0.00 0.00 0.00 0.00 0.01 0.01 0.00 0.00 0.00 0.00 0.00 0.00 0.01 0.05 0.09 0.06 0.06 0.05 0.10 0.16 0.04 0.06 0.05 0.02 0.02 0.00 0.00 0.01 0.00 0.01 0.05 0.03 0.01 0.00 0.00
0.33 0.11 0.02 0.05 0.04 0.01 0.01 0.00 0.01 0.00 0.00 0.01 0.00 0.01 0.02 0.01 0.00 0.00 0.00 0.00 0.00 0.00 0.02 0.06 0.08 0.15 0.07 0.04 0.11 0.13 0.04 0.02 0.01 0.00 0.01 0.01 0.01 0.01 0.07 0.18 0.16 0.03 0.01 0.00 0.00